{"data":{"norad_id":65427,"epoch":"2026-09-20T14:27:30.580992Z","epoch_age_seconds":106058,"freshness":"FRESH","line1":"1 65427U 25192Z   26263.60243728  .00014260  00000+0  46992-3 0  9999","line2":"2 65427  53.1592  45.7609 0000827  54.1352 305.9727 15.31733641 59246","mean_motion":15.31733641,"eccentricity":8.27e-5,"inclination_deg":53.1592,"raan_deg":45.7609,"arg_perigee_deg":54.1352,"mean_anomaly_deg":305.9727,"bstar":0.00046992,"rev_number":5924,"period_min":94.011123178041,"perigee_km":470.07332115624,"apogee_km":471.2061088249,"semimajor_km":6848.7767149906,"source":"CELESTRAK","updated_at":"2026-09-21T09:00:35.606952Z"}}